Погода в Горнореченском

Россия / Приморский край     44°15′46″N   135°06′47″E
темп.,
°C
ветер,
м/с
пор.,
м/с
влажн.,
%
обл.,
%
осадки,
мм/ч
давл.,
гПа
погр.,
м
8 августа, пн
пн801:00+19юв1299100 2.3 100489
04:00+20юв14100100 3.6 1002222
07:00+20ююз11100100 2.1 1000153
10:00+21зсз1299100 2.8 999175
13:00+25зсз477392 0.3 9991059
16:00+25зсз586318 0.4 9991201
19:00+23сз59600 0.0 10011053
22:00+16зсз37770 0.0 1003156
9 августа, вт
вт901:00+14з2283100 0.0 100434
04:00+14з2184100 0.0 100419
07:00+14з1287100 0.0 100551
10:00+21з365199 0.0 10041379
13:00+24зсз463389 0.0 10031876
16:00+25з46330 0.0 10022106
19:00+21з38560 0.0 1003239
22:00+15зюз22720 0.0 100415
10 августа, ср
ср1001:00+14з11750 0.0 100414
04:00+13з11780 0.0 100411
07:00+14з11810 0.0 100423
10:00+23зюз36470 0.0 10031059
13:00+27з59320 0.0 10022494
16:00+27з69321 0.0 10012737
19:00+22з256224 0.0 1002147
22:00+17зюз2276100 0.0 100425
11 августа, чт
чт1101:00+16зюз2178100 0.0 100419
04:00+15зюз1176100 0.0 100413
07:00+16зюз2272100 0.0 100434
10:00+18зюз128686 0.2 1004107
13:00+27з36380 0.0 10012274
16:00+27з583654 0.0 10002957
19:00+22зсз39640 0.0 1002515
22:00+16з11884 0.0 100412
12 августа, пт
пт1201:00+14зсз11935 0.0 100411
04:00+13зсз1196100 0.0 100415
07:00+15зсз1192100 0.0 100424
10:00+16вюв0098100 1.8 100586
13:00+22зсз136839 0.1 1004885
16:00+24зсз365050 1.1 10041887
19:00+20сз2670100 0.1 1005192
22:00+16з1179100 0.1 100711